AirNav   Everest Fuels
 
 609 users online  

1T7 Kestrel Airpark
San Antonio, Texas, USA

GOING TO SAN ANTONIO?


FAA INFORMATION EFFECTIVE 03 NOVEMBER 2022

Location

FAA Identifier: 1T7
Lat/Long: 29-48-42.3000N 098-25-33.8000W
29-48.705000N 098-25.563333W
29.8117500,-98.4260556
(estimated)
Elevation: 1261 ft. / 384 m (estimated)
Variation: 07E (1995)
From city: 23 miles N of SAN ANTONIO, TX
Time zone: UTC -6 (UTC -5 during Daylight Saving Time)
Zip code: 78070

Airport Operations

Airport use: Open to the public
Activation date: 06/1999
Control tower: no
ARTCC: HOUSTON CENTER
FSS: SAN ANGELO FLIGHT SERVICE STATION
NOTAMs facility: SJT (NOTAM-D service available)
Attendance: CONTINUOUS
Wind indicator: yes
Segmented circle: yes
Lights: SS-SR

Airport Communications

CTAF/UNICOM: 122.975
WX AWOS-3 at 5C1 (15 nm W): 118.725 (830-755-9099)
WX ASOS at SAT (17 nm S): PHONE 210-805-5583

Nearby radio navigation aids

VOR radial/distance  VOR name  Freq  Var
SATr002/10.2SAN ANTONIO VORTAC116.8008E
RNDr332/19.0RANDOLPH VORTAC112.3005E
STVr140/27.8STONEWALL VORTAC113.8008E
SSFr353/(33.2)STINSON VOR108.4009E

 
NDB name  Hdg/Dist  Freq  Var  ID
ALAMO027/14.436804EAN .- -.

Airport Services

Fuel available: 100LL
100LL:SELF SERV FUEL. FOR ASSISTANCE CALL 830-522-1885.
Parking: tiedowns
Airframe service: MAJOR
Powerplant service: MAJOR
Bulk oxygen: HIGH

Runway Information

Runway 12/30

Dimensions: 3000 x 40 ft. / 914 x 12 m
Surface: asphalt, in good condition
Runway edge lights: non-standard
NONSTD LIRL; RWY 12 LGTS NOT AT THR.
Runway edge markings: RWY NRS 35 FT HIGH.
Operational restrictions: RWY 30 RISES RAPIDLY AT NORTH END. 12 END 49 FT HIGHER THAN 30 END.
RUNWAY 12  RUNWAY 30
Latitude: 29-48.856647N29-48.553942N
Longitude: 098-25.788255W098-25.339040W
Elevation: 1261.0 ft.1218.0 ft.
Traffic pattern: leftright
Runway heading: 121 magnetic, 128 true301 magnetic, 308 true
Markings: NSTD, in good conditionNSTD, in good condition
Obstructions: 21 ft. trees, 295 ft. from runway, 30 ft. left of centerline, 4:1 slope to clear
15 FT RD 0 FT DSTC 70 FT L; 35 FT TREE 110 FT DSTC, 70 FT L; 35 FT TREE, O FT DSTC, 85 FT L.
15 ft. road, 200 ft. from runway
15 FT RD 0 FT DSTC 67 FT L.

Airport Ownership and Management from official FAA records

Ownership: Privately-owned
Owner: KESTREL AIRPARK RUNWAY ASSOCIATION
354 FLIGHTLINE
SPRING BRANCH, TX 78070
Phone 210-504-8992
Manager: BRIAN LLOYD
354 FLIGHTLINE
SPRING BRANCH, TX 78070
Phone 210-504-8992

Airport Operational Statistics

Aircraft based on the field: 83
Single engine airplanes: 75
Multi engine airplanes: 5
Helicopters: 2
Ultralights: 1
    
Aircraft operations: avg 133/week *
95% local general aviation
5% transient general aviation
* for 12-month period ending 10 May 2020

Additional Remarks

DEER ON & INVOF RWY.
TGL AND LOW APCHS PROHIBITED FOR TRAN & COML ACFT. TKOFS RSTRD BTN 2200-0600.
HEL TRNG OPS PROHIBITED.
FOR CD CTC SAN ANTONIO APCH AT 210-805-5516.
USE EXTREME CTN FOR HIGH PER MIL ACFT FROM RANDOLPH AFB AT OR ABV 3000 FT MSL MON-FRI 0800-2200 AND WHEN TWR HRS EXTD BY NOTAM, OCNL SAT AND SUN.
RWY 12 120 FT RISING TRRN 0.4 MI NW OF RWY END. NONSTD AIMING POINT MARKINGS AT 500 FT, 2490 FT REMAINING.

Instrument Procedures

There are no published instrument procedures at 1T7.

Some nearby airports with instrument procedures:

5C1 - Boerne Stage Field Airport (15 nm W)
KSAT - San Antonio International Airport (17 nm S)
KRND - Randolph Air Force Base (19 nm SE)
KBAZ - New Braunfels National Airport (21 nm E)
KSKF - Kelly Field Airport (27 nm S)
 
Loc | Ops | Rwys | IFR | FBO | Links
Com | Nav | Svcs | Stats | Notes
Area around 1T7 (Kestrel Airpark)
 
Road maps at: MapQuest Bing Google
 
Aerial photo
WARNING: Photo may not be current or correct
Aerial photo of 1T7 (Kestrel Airpark)
Do you have a better or more recent aerial photo of Kestrel Airpark that you would like to share? If so, please send us your photo.

 
Sectional chart

 
Airport distance calculator
Flying to Kestrel Airpark? Find the distance to fly.

From to 1T7

Sunrise and sunset
Times for 30-Nov-2022
 Local
(UTC-6)
 Zulu
(UTC)
Morning civil twilight06:4612:46
Sunrise07:1213:12
Sunset17:3323:33
Evening civil twilight17:5923:59

Current date and time
Zulu (UTC)  30-Nov-2022 06:52:30
Local (UTC-6)  30-Nov-2022 00:52:30
 
METAR
K5C1 
15nm W 
300635Z AUTO 00000KT 10SM CLR 10/10 A3000 RMK AO1
KSAT 
17nm S 
300551Z 31005KT 10SM CLR 15/13 A2996 RMK AO2 SLP131 T01500133 10250 20150 402720150 51024
KRND 
20nm SE 
300555Z AUTO 00000KT 9SM CLR 15/15 A2993 RMK AO2 SLP130 T01490147 10241 20148 402770148 52023
KBAZ 
20nm E 
300551Z AUTO 26004KT 10SM CLR 15/13 A2995 RMK AO2 SLP135 T01500133 10228 20144 51027
KSKF 
28nm S 
300555Z AUTO 32006KT 10SM CLR 16/16 A2993 RMK AO2 SLP130 T01570157 10233 20138 402720138 52021 $
KSSF 
29nm S 
300553Z AUTO 26003KT 7SM CLR 15/14 A2994 RMK AO2 SLP131 T01500144 10233 20139 402780139 51023
KHYI 
29nm E 
300556Z 34005KT 10SM CLR RMK AO2 SLPNO FZRANO $
TAF
KSAT 
17nm S 
300539Z 3006/0112 32004KT P6SM SKC FM300900 36012G20KT P6SM SKC FM301200 02015G25KT P6SM SKC FM010000 04010KT P6SM FEW250
KRND 
20nm SE 
291708Z 2917/3023 20009KT 9999 SCT012 BKN020 BKN035 QNH2974INS BECMG 2917/2918 21010KT 9999 FEW020 BKN030 QNH2971INS BECMG 2919/2920 22010KT 9999 FEW040 QNH2967INS BECMG 3000/3001 30009KT 9999 SKC 510005 QNH2972INS BECMG 3007/3008 01015G25KT 9999 SKC 510005 QNH3005INS TX27/2921Z TN09/3013Z LAST NO AMDS AFT 3001 NEXT 3011
NOTAMs
Click for the latest NOTAMs
NOTAMs are issued by the DoD/FAA and will open in a separate window not controlled by AirNav.

 

 
 

FBO, Fuel Providers, and Aircraft Ground Support

  
 Business Name 
 
 Contact 
 
 Services / Description 
 
Fuel Prices
 
Comments
  
 Aloha Aviation Services
830-522-1885
[web site]
[email]
Aviation fuel, Oxygen service, Aircraft parking (ramp or tiedown), Hangars, Hangar leasing / sales, Passenger terminal and lounge, Flight training, ...

More info about Aloha Aviation Services
Phillips 66
100LL
SS $5.95 
GUARANTEED
 
   2 read write
SS=Self service
Update Fuel Prices
 

Would you like to see your business listed on this page?

 If your business provides an interesting product or service to pilots, flight crews, aircraft, or users of the Kestrel Airpark, you should consider listing it here.  To start the listing process, click on the button below
 
Add a business
 

Other Pages about Kestrel Airpark

www.kestrelairport.com
www.kestrel-airpark.com
 
Update a link
 
Copyright © AirNav, LLC. All rights reserved. Privacy Policy  Contact